Location: Grand Rapids
(42.9630°N, 85.6680°W)
Time: 03:04:49
(UTC-04:00)

A-11 Canister half - Pass Details

Date: 31 May 2024
Orbit: 1524 x 1684 km, 47.3° (Epoch: 21 June)

Event Time Altitude Azimuth Distance (km) Brightness Sun altitude
Rises 04:02:45 0° 294° (WNW) 4,772 11.5 -17.2°
Reaches altitude 10° 04:06:18 10° 284° (WNW) 3,808 10.9 -16.9°
Maximum altitude 04:14:11 29° 229° (SW) 2,639 9.7 -16.0°
Drops below altitude 10° 04:22:16 10° 174° (S) 3,895 10.7 -15.1°
Sets 04:25:59 0° 164° (SSE) 4,897 11.3 -14.7°
